Regional Weather Roundup
Issued by NWS Wakefield, VA

Home | Current Version | Previous Version | Graphics & Text | Print | Product List | Glossary On
Versions: 1 2 3 4 5 6 7 8 9 10 11 12 13 14 15 16 17 18 19 20 21 22 23 24 25 26 27 28 29 30 31 32 33 34 35 36 37 38 39 40 41 42 43 44 45 46 47 48 49 50
382
ASUS41 KAKQ 221715
RWRAKQ

REGIONAL WEATHER ROUNDUP
NATIONAL WEATHER SERVICE WAKEFIELD VA
100 PM EDT FRI SEP 22 2017

Note: "fair" indicates few or no clouds below 12,000 feet with no
significant weather and/or obstructions to visibility. * = Denotes
station may not report precipitation (e.g., rain,snow,etc.),
thunder or fog.

VAZ042-051-052>054-056-221800-
NORTHERN VIRGINIA

CITY           SKY/WX    TMP DP  RH WIND       PRES   REMARKS
WASH NATIONAL  CLOUDY    80  65  59 CALM      30.06F
DULLES         CLOUDY    81  64  56 VRB5      30.07F
FORT BELVOIR   CLOUDY    81  64  55 NW8       30.05F
QUANTICO       CLOUDY    81  65  58 E5        30.06F
FREDERICKSBRG* CLOUDY    79  64  59 CALM      30.06S
STAFFORD*      CLOUDY    81  64  57 NW5       30.10F
WARRENTON      CLOUDY    83  60  45 NW6       30.07S
CULPEPER*      PTSUNNY   83  65  54 N7        30.07F
MANASSAS*      CLOUDY    81  65  58 NW5       30.07F
LEESBURG*      CLOUDY    81  66  61 N8        30.08S
WINCHESTER     CLOUDY    77  63  61 CALM      30.08F
FRONT ROYAL*   PTSUNNY   79  63  57 CALM      30.08F
LURAY*         CLOUDY    81  63  54 SE3       30.10F
$$

VAZ048-049-060>072-079>083-221800-
CENTRAL AND SOUTH CENTRAL VIRGINIA

CITY           SKY/WX    TMP DP  RH WIND       PRES   REMARKS
RICHMOND       CLOUDY    84  66  54 NE9       30.05F
CHESTERFIELD*  NOT AVBL
PETERSBURG*    MOSUNNY   83  62  49 NW8       30.06F
HANOVER        CLOUDY    79  67  66 E3        30.07F
TAPPAHANNOCK*  CLOUDY    82  60  48 CALM      30.06F
QUINTON*       FAIR      77  69  76 N10       30.05F
CHARLOTTSVILLE CLOUDY    82  63  52 CALM      30.08F
GORDONSVILLE*  CLOUDY    82  66  59 N3        30.07F
ORANGE*        CLOUDY    81  64  57 CALM      30.08S
LOUISA*        CLOUDY    81  64  57 N5        30.07F
BUMPASS*       FAIR      80  68  67 N5        30.07F
FARMVILLE*     MOSUNNY   86  63  45 N7        30.06S
CREWE*         FAIR      83  63  51 N6        30.06F
FORT PICKETT*  FAIR      83  65  52 N7        30.07S
CHASE CITY*    FAIR      83  63  51 N5        30.07F
CLARKSVILLE*   FAIR      82  63  51 N7        30.07S
SOUTH HILL*    SUNNY     83  68  58 N7        30.12F
LAWRENCEVILLE* FAIR      83  65  54 NW9       30.05F
EMPORIA*       SUNNY     82  63  51 NW6       30.06F
$$

VAZ088>098-221800-
SOUTHEAST VIRGINIA

CITY           SKY/WX    TMP DP  RH WIND       PRES   REMARKS
NORFOLK        CLOUDY    80  69  69 N13       30.01F
VIRGINIA BEACH CLOUDY    80  65  59 N12       30.01S
NORFOLK NAVAL  CLOUDY    82  68  62 N10       30.03F
WEST POINT*    MOSUNNY   79  66  65 W6        30.06F
SALUDA*        FAIR      78  71  80 W3        30.04F
NEWPORT NEWS   CLOUDY    81  66  60 N10       30.02F
LANGLEY AFB    PTSUNNY   80  71  73 N8        30.02F
FORT EUSTIS    CLOUDY    85  69  58 NW7       30.00F
WILLIAMSBURG*  CLOUDY    86  72  62 N5        30.04F
HR EXEC AP*    FAIR      84  69  60 N8        30.03F
FRANKLIN*      SUNNY     83  66  56 W6        30.03F
US460-WAKEFLD  SUNNY     85  66  53 VRB6      30.04F
$$

VAZ020-022-025-037-045-221800-
WEST CENTRAL AND SOUTHWEST VIRGINIA

CITY           SKY/WX    TMP DP  RH WIND       PRES   REMARKS
STAUNTON*      PTSUNNY   79  60  53 CALM      30.13F
WAYNESBORO*    CLOUDY    79  64  60 CALM      30.13F
HOT SPRINGS VA SUNNY     72  54  53 N5        30.26S
LYNCHBURG      MOSUNNY   85  63  47 VRB5      30.09F
DANVILLE       MOSUNNY   83  67  58 VRB3      30.08F
SOUTH BOSTON*  FAIR      83  66  55 CALM      30.07F
MARTINSVILLE   PTSUNNY   82  66  57 CALM      30.13F
ROANOKE        MOSUNNY   82  66  58 CALM      30.12F
BLACKSBURG     SUNNY     80  64  58 N3        30.18F
DUBLIN*        SUNNY     81  65  58 W3        30.17F
MARION*        MOSUNNY   78  59  53 W3        30.20F
HILLSVILLE*    SUNNY     77  57  50 SW3       30.18F
RICHLANDS*     FAIR      76  59  55 NW3       30.19F
WISE*          MOSUNNY   79  61  53 NE7       30.21S
ABINGDON*      MOSUNNY   82  64  53 W5        30.16F
$$

MDZ021>025-VAZ099-100-221800-
SOUTHERN MARYLAND AND THE DELMARVA PENINSULA

CITY           SKY/WX    TMP DP  RH WIND       PRES   REMARKS
PATUXENT RIVER CLOUDY    81  63  54 NW7       30.04F
BAY BRIDGE APT CLOUDY    77  66  69 N6        30.05S
LEONARDTOWN    CLOUDY    79  63  57 NW5       30.06S
DOVER          PTSUNNY   77  61  57 NW10      30.01F
GEORGETOWN     MOSUNNY   79  53  40 NW7       30.02F
EASTON         CLOUDY    77  66  69 NW9       30.08S
CAMBRIDGE      SUNNY     77  63  61 NW8       30.04S
SALISBURY      CLOUDY    77  62  59 N5        30.02F
OCEAN CITY     CLOUDY    76  59  55 N8        30.01F
WALLOPS ISLAND CLOUDY    77  64  64 NW10      30.03F
ACCOMACK*      CLOUDY    76  63  65 N5        30.03F
$$

NCZ012>017-030>032-221800-
NORTH CENTRAL AND EASTERN NORTH CAROLINA

CITY           SKY/WX    TMP DP  RH WIND       PRES   REMARKS
ROANOKE RAPIDS FAIR      82  68  61 N5        30.05F
RALEIGH        MOSUNNY   84  63  49 NE5       30.07F
ELIZABETH CITY SUNNY     86  70  58 NW10      30.02F
AHOSKIE*       MOSUNNY   82  67  60 N5        30.04F
EDENTON*       MOSUNNY   85  69  57 NW5       30.04F
CURRITUCK*     SUNNY     83  67  58 NW8       30.02F
KILL DEVIL HLS SUNNY     79  67  66 CALM      30.02F
MANTEO         SUNNY     81  67  63 NW5       30.03F
CAPE HATTERAS  SUNNY     82  70  66 CALM      30.04F
TARBORO*       NOT AVBL
GOLDSBORO      SUNNY     84  69  59 NW3       30.04F
WASHINGTON     MOSUNNY   85  67  55 N6        30.05F
GREENVILLE     MOSUNNY   82  68  61 N6        30.06F
NEW BERN       PTSUNNY   82  68  62 CALM      30.05F
WILMINGTON     MOSUNNY   82  69  64 E5        30.05F
$$

VAZ048-221800-
ELSEWHERE

CITY           SKY/WX    TMP DP  RH WIND       PRES   REMARKS
HARRISBURG PA  MOSUNNY   81  60  48 N6        30.05F
BALTIMORE      CLOUDY    80  66  62 W8        30.04F
ANNAPOLIS      CLOUDY    80  70  71 NW7       30.04F
ANDREWS AFB    CLOUDY    81  62  53 NW6       30.05F
PHILADELPHIA   CLOUDY    77  57  50 VRB7      30.02F
HENDERSON NC   SUNNY     82  60  47 NW6       30.07F
GREENSBORO     PTSUNNY   84  65  52 VRB3      30.09F
ROCKY MOUNT    SUNNY     85  66  53 NW6       30.06F
$$

VAZ100-221800-
MARINE

STATION/POSITION TIME  TEMP    WIND        PRES    WAVE   SWELL
                       AIR SEA DIR/SP/G            HT/PER HT/PER
                 (UTC) (F)     (DEG/KT/KT) (MB)    (FT/S) (FT/S)
BRANDYWINE LGT   1642   74     350/ 16/ 18 1016.5F
CAPE MAY NJ      1648   75 74  330/  4/ 12 1015.6F
LEWES DE         1642   74 74  360/ 14/ 15 1016.2F
15NM E FENWICK I 1650   72 71  320/ 14/ 17 1016.0F   6/10   5/10
OCEAN-CITY-INLET 1642   75 74  360/ 13/ 16 1016.6F
WACHAPREAGUE VA  1642   76 76  330/  4/  7 1016.8F
THOMAS POINT MD  1700   77 76   CALM  /  2   N/A
GOOSES REEF MD   1700   76 76  340/  4/  4 1018.0    4
COVE POINT MD    1642   74     340/  7/  9 1018.1F
SOLOMONS ISLAND  1642   78 76  290/  4/  7 1017.0F
BISHOPS HEAD MD  1642   76 76  290/  8/ 11 1017.3F
PINEY POINT MD   1642          310/  7/  7   N/A
POTOMAC MD       1700   76 76  300/  6/  6 1016.4    0
CAMBRIDGE MD     1642   78 77              1018.1F
LEWISETTA VA     1642   77 76  360/  3/  4 1017.4F
RAPPAHANNOCK LGT 1642          360/  8/ 11 1017.8S
STINGRAY PT      1700   75 76   60/  8/ 10 1017.4    1/ 3
YORK RVR RNG VA  1642   76     360/  8/  9 1017.5F
YORKTOWN VA      1642   77 77  320/  9/ 10 1016.7F
JAMESTOWN VA     1700      79  330/  8/ 10   N/A     0
DOMINION TERM VA 1642   78     320/  9/ 10 1016.7F
KIPTOPEKE VA     1642      75  360/  8/ 10   N/A
CHES BAY BRIDGE  1642   75 75   10/ 13/ 15 1016.5F
CAPE HENRY VA    1642   75     350/ 14/ 16   N/A
WILLOUBY STN VA  1642   80     360/ 10/ 12 1016.6F
S CRANEY ISL VA  1642   82     320/  6/ 12 1016.5F
CAPE HENRY BUOY  1700      74                N/A     4/13   3/13
1ST LANDING BUOY 1700   75 76              1016.6    3/ 5
64NM E OF VA BCH 1650   72 70  310/ 10/ 12 1016.5F   8/11   7/11
DUCK PIER NC     1642   81 76  310/  7/ 10 1016.2F
44100 DUCK FRF   1635      75                N/A     8/13   5/13
44056 DUCK FRF   1630      76                N/A     6/13   5/13
OREGON INLET NC  1642   80 77  280/ 11/ 14 1016.6F
HATTERAS NC      1642   78 78  320/  4/  5 1017.4F
DIAMOND SHLS NC  1650   76 78  320/  4/  6 1017.4F   5/11   5/11
CAPE LOOKOUT NC  1700   81     180/  5/  6 1017.1F
$$




USA.gov is the U.S. government's official web portal to all federal, state and local government web resources and services.